537  
ASUS41 KAKQ 251415  
RWRAKQ  
 
REGIONAL WEATHER ROUNDUP  
NATIONAL WEATHER SERVICE WAKEFIELD VA  
1000 AM EDT MON OCT 25 2021  
 
NOTE: "FAIR" INDICATES FEW OR NO CLOUDS BELOW 12,000 FEET WITH NO  
SIGNIFICANT WEATHER AND/OR S TO VISIBILITY
. * = DENOTES  
STATION MAY NOT REPORT PRECIPITATION (E.G., RAIN,SNOW,ETC.),
 
THUNDER OR FOG.  
 
VAZ042-051-052>054-056-251500-  
NORTHERN VIRGINIA  
 
CITY SKY/WX TMP DP RH WIND PRES REMARKS
 
WASH NATIONAL PTSUNNY 68 60 75 S10 29.96F  
DULLES PTSUNNY 65 59 81 S16G22 29.93F  
FORT BELVOIR PTSUNNY 67 61 81 S6 29.95F  
QUANTICO SUNNY 69 61 75 S9 29.96F  
FREDERICKSBRG* SUNNY 67 62 84 SW8 29.95F  
STAFFORD* SUNNY 67 60 79 S5 30.00F  
WARRENTON SUNNY 69 61 75 SW10 29.93F  
CULPEPER* SUNNY 68 60 75 SW8 29.95F  
MANASSAS* SUNNY 65 60 84 S5 29.94F HAZE  
LEESBURG* SUNNY 63 59 88 S9 29.95F  
WINCHESTER SUNNY 61 54 77 CALM 29.90F  
FRONT ROYAL* FAIR 68 54 60 MISG 29.91F  
LURAY* FAIR 64 54 68 S6 29.93S  

 
 
VAZ048-049-060>072-079>083-251500-  
CENTRAL AND SOUTH CENTRAL VIRGINIA  
 
CITY SKY/WX TMP DP RH WIND PRES REMARKS
 
RICHMOND PTSUNNY 66 63 90 S9 29.98F  
CHESTERFIELD* FAIR 65 64 97 S5 29.99F  
PETERSBURG* CLOUDY 62 61 95 S3 30.00F FOG  
HANOVER SUNNY 70 62 76 S9 29.98F  
TAPPAHANNOCK* SUNNY 67 67 100 S5 29.98F  
QUINTON* FAIR 64 62 93 S3 29.98F  
CHARLOTTSVILLE SUNNY 63 56 78 VRB7 29.95F  
GORDONSVILLE* FAIR 61 60 97 S8 29.95F  
ORANGE* SUNNY 61 57 88 S9G17 29.94F  
LOUISA* SUNNY 64 62 90 S3 30.00F  
BUMPASS* FAIR 67 61 81 SW6 29.97F  
FARMVILLE* NOT AVBL  
CREWE* FAIR N/A N/A N/A S3 29.98F  
FORT PICKETT* FAIR 65 65 100 S3 29.98F  
CHASE CITY* FAIR 65 62 90 SE6 29.99F  
CLARKSVILLE* PTSUNNY 64 64 100 CALM 29.99S  
SOUTH HILL* SUNNY 65 63 93 S3 30.05F  
LAWRENCEVILLE* FAIR 67 64 90 CALM 30.00F  
EMPORIA* SUNNY 65 63 93 CALM 30.01F  

 
 
VAZ088>098-251500-  
SOUTHEAST VIRGINIA  
 
CITY SKY/WX TMP DP RH WIND PRES REMARKS
 
NORFOLK PTSUNNY 70 66 87 S6 30.00F  
VIRGINIA BEACH PTSUNNY 75 65 70 S7 30.00F  
NORFOLK NAVAL PTSUNNY 71 64 78 S6 30.02F  
WEST POINT* N/A 68 64 85 S6 30.00F  
SALUDA* FAIR 69 64 86 S6 30.00F  
NEWPORT NEWS PTSUNNY 70 65 84 S7 30.01F  
LANGLEY AFB CLOUDY 71 71 99 SW5 30.00F  
FORT EUSTIS MOSUNNY 69 57 67 S8 29.98F  
WILLIAMSBURG* SUNNY 70 64 83 S7 30.01F  
HR EXEC AP* PTSUNNY 67 65 93 CALM 30.02F  
FRANKLIN* MOSUNNY 69 68 98 CALM 30.01F  
US460-WAKEFLD SUNNY 69 66 90 CALM 30.00F  

 
 
VAZ020-022-025-037-045-251500-  
WEST CENTRAL AND SOUTHWEST VIRGINIA  
 
CITY SKY/WX TMP DP RH WIND PRES REMARKS
 
STAUNTON* SUNNY 59 54 83 CALM 29.97F  
WAYNESBORO* FAIR 63 53 70 CALM 29.96S  
HOT SPRINGS VA SUNNY 62 41 46 SW6 30.01S  
LYNCHBURG SUNNY 63 57 81 S7 29.97F  
DANVILLE PTSUNNY 65 60 84 SW5 29.99S  
SOUTH BOSTON* PTSUNNY 64 59 86 CALM 29.99F  
MARTINSVILLE SUNNY 65 57 75 S3 30.00F  
ROANOKE PTSUNNY 61 54 77 CALM 29.99F  
BLACKSBURG SUNNY 64 58 80 CALM 30.01F  
DUBLIN* NOT AVBL  
MARION* SUNNY 59 49 67 E5 30.00F  
HILLSVILLE* SUNNY 61 56 82 S9 29.99F  
RICHLANDS* FAIR 63 39 40 S6 29.95S  
WISE* PTSUNNY 59 43 55 S8 29.96F  
ABINGDON* SUNNY 60 47 63 CALM 29.96S  

 
 
MDZ021>025-VAZ099-100-251500-  
SOUTHERN MARYLAND AND THE DELMARVA PENINSULA  
 
CITY SKY/WX TMP DP RH WIND PRES REMARKS
 
PATUXENT RIVER PTSUNNY 72 62 71 S9 29.97F  
BAY BRIDGE APT NOT AVBL  
LEONARDTOWN SUNNY 72 63 73 SW9G16 29.99F  
DOVER SUNNY 68 63 83 S13 29.95F  
GEORGETOWN SUNNY 70 64 81 S14 29.99F  
EASTON SUNNY 70 70 100 S10 30.00F  
CAMBRIDGE SUNNY 72 66 83 S6G15 29.98F  
SALISBURY SUNNY 70 66 87 S12 30.00F  
TANGIER FAIR 71 66 84 S13 30.00F  
OCEAN CITY SUNNY 71 65 81 SW8 30.02S  
WALLOPS ISLAND PTSUNNY 71 67 87 S13 30.02F  
ACCOMACK* NOT AVBL  

 
 
NCZ012>017-030>032-251500-  
NORTH CENTRAL AND EASTERN NORTH CAROLINA  
 
CITY SKY/WX TMP DP RH WIND PRES REMARKS
 
ROANOKE RAPIDS PTSUNNY 63 63 100 CALM 30.01F  
RALEIGH CLOUDY 67 64 90 SE3 29.99F  
ELIZABETH CITY CLOUDY 73 67 81 S7 30.02S  
AHOSKIE* SUNNY 66 66 100 CALM 30.01F  
EDENTON* CLOUDY 72 71 98 S3 30.03S  
CURRITUCK* CLOUDY 71 71 100 S5 30.02F  
KILL DEVIL HLS PTSUNNY 73 65 78 SE7 30.01F  
MANTEO SUNNY 74 65 75 S10 30.03F  
CAPE HATTERAS SUNNY 76 71 85 SE12 30.03S  
TARBORO* FAIR 67 65 94 CALM 30.00F FOG  
GOLDSBORO PTSUNNY 70 68 94 E3 29.97F  
WASHINGTON CLOUDY 70 67 90 CALM 30.03  
GREENVILLE PTSUNNY 68 66 94 CALM 30.03S  
NEW BERN LGT RAIN 69 64 84 S7 30.03R  
WILMINGTON LGT RAIN 70 66 87 S5 30.00S  

 
 
VAZ048-251500-  
ELSEWHERE  
 
CITY SKY/WX TMP DP RH WIND PRES REMARKS
 
HARRISBURG PA MOSUNNY 57 52 83 CALM 29.93F  
BALTIMORE PTSUNNY 69 61 75 SW12G21 29.93F  
ANNAPOLIS SUNNY 68 62 81 S5 29.95F  
ANDREWS AFB SUNNY 69 58 66 SW9 29.93F  
PHILADELPHIA PTSUNNY 67 61 81 S12 29.96F  
HENDERSON NC PTSUNNY 62 62 99 CALM 29.99F  
GREENSBORO PTSUNNY 66 61 84 SW6 29.98F  
ROCKY MOUNT CLOUDY 69 64 84 CALM 29.99F  

 
 
VAZ100-251500-  
MARINE  
 
STATION/POSITION TIME TEMP WIND PRES WAVE SWELL
 
AIR SEA DIR/SP/G HT/PER HT/PER  
(UTC) (F) (DEG/KT/KT) (MB) (FT/S) (FT/S)  
CAPE MAY NJ 1324 68 65 180/ 9/ 14 1015.9  
LEWES DE 1324 69 66 200/ 7/ 12 1015.9  
15NM E FENWICK I 1350 69 67 180/ 14/ 16 1016.2F 4/ 5 2/12  
OCEAN-CITY-INLET 1324 68 65 230/ 10/ 12 1017.5  
44089 WALLOPS IS 1356 67 N/A 3/ 5  
WACHAPREAGUE VA 1324 69 65 230/ 5/ 8 1017.0  
THOMAS POINT MD 1400 66 67 180/ 16/ 18 1015.2F  
GOOSES REEF MD 1354 66 68 190/ 14/ 17 1015.9F  
COVE POINT MD 1324 68 150/ 11/ 14 1015.3  
SOLOMONS ISLAND 1324 68 68 210/ 10/ 13 1015.0  
BISHOPS HEAD MD 1324 68 64 190/ 14/ 16 1015.8  
PINEY POINT MD 1324 200/ 9/ 11 N/A  
POTOMAC MD 1354 66 67 190/ 12/ 14 1016.3F  
CAMBRIDGE MD 1324 69 65 170/ 7/ 14 1015.3  
LEWISETTA VA 1324 67 65 190/ 6/ 7 1015.7  
RAPPAHANNOCK LGT 1324 170/ 11/ 13 1017.5  
STINGRAY PT 1354 66 180/ 8/ 14 1017.7F  
YORK RVR RNG VA 1324 68 180/ 8/ 8 N/A  
YORKTOWN VA 1324 68 69 170/ 4/ 6 1016.1  
DOMINION TERM VA 1324 68 160/ 3/ 4 1016.6  
KIPTOPEKE VA 1324 69 180/ 8/ 9 N/A  
CHES BAY BRIDGE 1324 69 200/ 5/ 6 1015.6  
CAPE HENRY VA 1324 71 160/ 7/ 10 1016.9  
WILLOUBY STN VA 1318 69 180/ 4/ 5 1016.8  
S CRANEY ISL VA 1324 68 190/ 3/ 4 1016.4  
CAPE HENRY BUOY 1326 69 N/A 2/ 7  
64NM E OF VA BCH 1350 72 170/ 8/ 10 1016.7F 3/ 5 2/ 5  
DUCK PIER NC 1324 71 70 130/ 9/ 10 1016.5  
44100 DUCK FRF 1356 71 N/A 3/ 5  
44056 DUCK FRF 1356 70 N/A 2/ 5  
OREGON INLET NC 1318 72 73 160/ 6/ 9 1016.9  
HATTERAS NC 1324 75 74 140/ 8/ 10 1017.0  
DIAMOND SHLS NC 1350 77 75 150/ 14/ 17 1016.8R 4/ 6 2/ 7  
CAPE LOOKOUT NC 1400 71 140/ 20/ 22 1018.0R  

 
 
 
CLICK HERE TO GO TO PREVIOUS BULLETINS.

The Nexlab VA Page
The Nexlab NC Page
The Nexlab MD Page Main Text Page